Date String (YYYY-MM-DD hh:mm:ss) UTC,Instrument flags,Ambient pressure (hPa),Sample flow (lpm),Bypass flow (lpm),Sample temperature (°C),Ambient temperature (°C),ASC tube jacket temperature (°C),LED temperature (°C),Box temperature (°C),Sample RH (%),Span deviation,Mass concentration (μg/m³),Mass concentration (μg/m³),Mass concentration (μg/m³)
DateTimeUTC,F1_M11,P_M11,Q1_M11,Q2_M11,T1_M11,T2_M11,T3_M11,T4_M11,T5_M11,U1_M11,ZSPAN_M11,X0_M11,X2_M11,X1_M11
2021-08-25 03:00:00,,0828.4,5.00,0.00,29.1,27.5,00.0,38.2,30.9,16.1,0001.9,0013.75,0005.25,0004.18
2021-08-25 03:01:00,,0828.4,5.00,0.00,29.2,27.8,00.0,38.2,31.0,16.1,0001.9,0014.24,0005.25,0004.19
2021-08-25 03:02:00,,0828.5,5.00,0.00,29.2,28.0,00.0,38.2,31.1,16.1,0002.0,0014.63,0005.24,0004.19
2021-08-25 03:03:00,,0828.5,4.99,0.00,29.2,28.2,00.0,38.2,31.1,16.1,0002.3,0015.71,0005.29,0004.21
2021-08-25 03:04:00,,0828.5,5.00,0.00,29.3,28.3,00.0,38.2,31.2,16.2,0002.1,0015.98,0005.32,0004.22
2021-08-25 03:05:00,,0828.4,5.02,0.00,29.3,28.4,00.0,38.3,31.3,15.6,0002.4,0015.98,0005.24,0004.23
2021-08-25 03:06:00,,0828.5,5.00,0.00,29.4,28.5,00.0,38.3,31.3,15.7,0002.5,0015.41,0005.20,0004.23
2021-08-25 03:07:00,,0829.0,4.99,0.00,29.4,28.3,00.0,38.3,31.3,15.6,0002.3,0015.09,0005.19,0004.23
2021-08-25 03:08:00,,0829.0,5.00,0.00,29.3,26.4,00.0,38.3,30.6,15.6,0002.2,0015.14,0005.20,0004.23
2021-08-25 03:09:00,,0828.8,5.00,0.00,29.1,25.0,00.0,38.3,30.3,15.7,0002.5,0014.25,0005.18,0004.23
2021-08-25 03:10:00,,0829.0,5.00,0.00,29.0,25.3,00.0,38.2,30.3,15.8,0002.5,0013.91,0005.14,0004.23
2021-08-25 03:11:00,,0829.0,4.99,0.00,28.9,25.8,00.0,38.2,30.4,15.9,0002.5,0014.04,0005.11,0004.24
2021-08-25 03:12:00,,0829.1,5.00,0.00,28.9,26.3,00.0,38.1,30.6,15.9,0002.5,0013.75,0005.06,0004.24
2021-08-25 03:13:00,,0828.9,5.00,0.00,28.9,26.8,00.0,38.1,30.7,15.9,0002.5,0013.89,0005.03,0004.23
2021-08-25 03:14:00,,0829.2,5.02,0.00,29.0,27.1,00.0,38.1,30.8,15.9,0002.4,0012.72,0004.96,0004.21
2021-08-25 03:15:00,,0828.9,5.00,0.00,29.0,27.4,00.0,38.1,30.9,15.7,0002.5,0012.78,0004.92,0004.20
2021-08-25 03:16:00,,0828.6,5.00,0.00,29.0,27.6,00.0,38.1,30.9,15.7,0002.5,0012.31,0004.94,0004.19
2021-08-25 03:17:00,,0828.9,4.99,0.00,29.1,27.9,00.0,38.1,31.0,15.7,0002.2,0012.06,0004.98,0004.19
2021-08-25 03:18:00,,0829.1,4.99,0.00,29.1,28.0,00.0,38.1,31.0,15.6,0002.2,0012.03,0005.00,0004.20
2021-08-25 03:19:00,,0828.9,5.01,0.00,29.2,28.2,00.0,38.2,31.1,15.5,0002.4,0011.82,0005.00,0004.21
2021-08-25 03:20:00,,0828.7,5.00,0.00,29.2,28.3,00.0,38.2,31.2,15.4,0002.0,0011.74,0004.97,0004.21
2021-08-25 03:21:00,,0828.7,5.00,0.00,29.3,28.3,00.0,38.2,31.2,15.3,0002.0,0011.86,0004.94,0004.21
2021-08-25 03:22:00,,0828.8,5.02,0.00,29.3,28.4,00.0,38.2,31.3,15.3,0002.0,0011.77,0004.93,0004.21
2021-08-25 03:23:00,,0829.2,5.00,0.00,29.4,28.5,00.0,38.3,31.3,15.2,0002.0,0011.38,0004.94,0004.21
2021-08-25 03:24:00,,0829.4,4.99,0.00,29.4,28.4,00.0,38.3,31.3,15.2,0002.3,0011.55,0004.95,0004.22
2021-08-25 03:25:00,,0829.3,5.00,0.00,29.3,26.7,00.0,38.3,30.9,15.3,0002.8,0011.65,0004.98,0004.23
2021-08-25 03:26:00,,0829.2,5.01,0.00,29.2,26.1,00.0,38.3,30.6,15.3,0002.9,0011.36,0005.03,0004.25
2021-08-25 03:27:00,,0829.1,5.00,0.00,29.1,26.4,00.0,38.3,30.7,15.4,0003.1,0011.10,0005.01,0004.26
2021-08-25 03:28:00,,0828.8,5.00,0.00,29.1,26.8,00.0,38.2,30.7,15.4,0003.6,0011.23,0004.95,0004.26
2021-08-25 03:29:00,,0828.8,5.00,0.00,29.1,27.2,00.0,38.2,30.8,15.4,0003.7,0011.59,0004.95,0004.26
2021-08-25 03:30:00,,0828.9,5.00,0.00,29.1,27.5,00.0,38.2,30.9,15.4,0003.5,0011.50,0004.91,0004.26
2021-08-25 03:31:00,,0828.9,4.99,0.00,29.2,27.8,00.0,38.2,31.0,15.3,0003.5,0011.79,0004.94,0004.28
2021-08-25 03:32:00,,0828.9,5.01,0.00,29.2,28.0,00.0,38.2,31.1,15.3,0003.5,0011.70,0004.98,0004.27
2021-08-25 03:33:00,,0828.9,5.00,0.00,29.3,28.2,00.0,38.3,31.2,15.3,0003.6,0011.87,0004.99,0004.27
2021-08-25 03:34:00,,0828.8,4.99,0.00,29.3,28.3,00.0,38.3,31.2,15.3,0003.4,0012.23,0004.97,0004.28
2021-08-25 03:35:00,,0828.9,5.01,0.00,29.3,28.4,00.0,38.3,31.3,15.2,0003.1,0012.11,0004.97,0004.28
2021-08-25 03:36:00,,0828.9,4.99,0.00,29.4,28.5,00.0,38.3,31.3,15.1,0003.1,0013.14,0005.01,0004.29
2021-08-25 03:37:00,,0828.9,4.99,0.00,29.4,28.6,00.0,38.4,31.4,15.1,0002.9,0013.81,0004.99,0004.28
2021-08-25 03:38:00,,0828.9,5.01,0.00,29.5,28.3,00.0,38.4,31.3,15.0,0002.9,0014.56,0005.03,0004.29
2021-08-25 03:39:00,,0828.9,4.99,0.00,29.4,26.6,00.0,38.4,30.8,15.0,0002.9,0014.22,0005.04,0004.30
2021-08-25 03:40:00,,0828.8,5.00,0.00,29.3,26.2,00.0,38.3,30.7,15.2,0002.4,0014.11,0005.07,0004.31
2021-08-25 03:41:00,,0828.9,5.01,0.00,29.2,26.5,00.0,38.3,30.8,15.2,0002.3,0014.34,0005.13,0004.31
2021-08-25 03:42:00,,0828.9,4.99,0.00,29.2,26.9,00.0,38.3,30.9,15.2,0002.9,0014.60,0005.17,0004.30
2021-08-25 03:43:00,,0828.9,5.01,0.00,29.2,27.3,00.0,38.3,30.9,15.2,0003.0,0014.40,0005.18,0004.31
2021-08-25 03:44:00,,0828.9,4.99,0.00,29.2,27.6,00.0,38.3,31.0,15.3,0003.1,0014.33,0005.23,0004.31
2021-08-25 03:45:00,,0828.9,4.99,0.00,29.2,27.8,00.0,38.3,31.1,15.2,0003.1,0013.94,0005.24,0004.31
2021-08-25 03:46:00,,0828.9,5.00,0.00,29.3,28.1,00.0,38.3,31.1,15.1,0003.2,0013.42,0005.27,0004.32
2021-08-25 03:47:00,,0828.9,5.01,0.00,29.3,28.2,00.0,38.3,31.2,15.0,0003.0,0012.26,0005.25,0004.33
2021-08-25 03:48:00,,0828.9,5.00,0.00,29.3,28.4,00.0,38.3,31.2,14.9,0003.1,0011.62,0005.23,0004.32
2021-08-25 03:49:00,,0828.9,4.99,0.00,29.4,28.5,00.0,38.4,31.3,14.9,0003.0,0010.60,0005.18,0004.31
2021-08-25 03:50:00,,0828.9,5.01,0.00,29.4,28.6,00.0,38.4,31.3,14.9,0002.9,0011.12,0005.17,0004.31
2021-08-25 03:51:00,,0828.9,4.99,0.00,29.5,28.6,00.0,38.4,31.3,14.9,0003.2,0011.16,0005.14,0004.31
2021-08-25 03:52:00,,0828.9,5.00,0.00,29.4,27.0,00.0,38.4,30.9,15.0,0003.2,0011.14,0005.14,0004.33
2021-08-25 03:53:00,,0828.9,5.00,0.00,29.3,26.1,00.0,38.4,30.7,15.3,0002.7,0010.73,0005.09,0004.33
2021-08-25 03:54:00,,0828.9,5.00,0.00,29.2,26.4,00.0,38.4,30.7,15.2,0002.1,0010.51,0005.05,0004.32
2021-08-25 03:55:00,,0828.9,5.00,0.00,29.2,26.7,00.0,38.3,30.8,15.1,0001.9,0010.18,0005.02,0004.33
2021-08-25 03:56:00,,0828.9,4.99,0.00,29.2,27.1,00.0,38.3,30.9,15.2,0002.0,0010.13,0005.02,0004.34
2021-08-25 03:57:00,,0828.8,5.01,0.00,29.2,27.5,00.0,38.3,31.0,15.3,0001.9,0010.14,0005.00,0004.35
2021-08-25 03:58:00,,0828.8,4.99,0.00,29.2,27.7,00.0,38.3,31.0,15.3,0001.5,0010.74,0004.99,0004.35
2021-08-25 03:59:00,,0828.8,5.00,0.00,29.3,27.9,00.0,38.3,31.1,15.3,0001.9,0010.71,0005.01,0004.37
